CW5689 Weather Reports


time (UTC)temp
C
wind
direction
speed
KPH
gust
KPH
rain 1hr
cm
rain 24hr
cm
rain mn
cm
humidity
%
barometer
mb
20260509032517 16 267 4.8 20.9 0.00 0.00 0.00 32 1002.2
20260509032023 16 299 9.7 20.9 0.00 0.00 0.00 31 1002.1
20260509031534 16 312 9.7 20.9 0.00 0.00 0.00 32 1002.0
20260509031017 16 252 8.0 24.1 0.00 0.00 0.00 32 1002.1
20260509030521 16 286 8.0 24.1 0.00 0.00 0.00 34 1002.0
20260509030038 16 274 8.0 29.0 0.00 0.00 0.00 35 1002.0
20260509025517 16 292 12.9 29.0 0.00 0.00 0.00 34 1001.9
20260509025017 16 292 8.0 17.7 0.00 0.00 0.00 33 1001.8
20260509024536 15 350 4.8 16.1 0.00 0.00 0.00 33 1001.7
20260509024017 15 298 3.2 16.1 0.00 0.00 0.00 34 1001.6
20260509023517 15 301 4.8 16.1 0.00 0.00 0.00 34 1001.5
20260509023035 16 271 3.2 12.9 0.00 0.00 0.00 34 1001.4
20260509022522 16 0 0.0 6.4 0.00 0.00 0.00 34 1001.2
20260509022017 16 0 0.0 0.0 0.00 0.00 0.00 33 1001.1
20260509021532 16 0 0.0 4.8 0.00 0.00 0.00 33 1001.0
20260509021017 17 0 0.0 8.0 0.00 0.00 0.00 32 1001.0
20260509020521 17 0 1.6 8.0 0.00 0.00 0.00 31 1000.9
20260509020039 17 0 0.0 4.8 0.00 0.00 0.00 30 1000.8
20260509015518 18 0 0.0 4.8 0.00 0.00 0.00 29 1000.8
20260509015020 18 285 1.6 11.3 0.00 0.00 0.00 28 1000.6
20260509014536 18 285 3.2 12.9 0.00 0.00 0.00 27 1000.6
20260509014026 18 283 0.0 12.9 0.00 0.00 0.00 28 1000.8
20260509013521 19 302 3.2 20.9 0.00 0.00 0.00 27 1000.6
20260509013033 19 260 4.8 20.9 0.00 0.00 0.00 26 1000.5
20260509012518 19 278 4.8 24.1 0.00 0.00 0.00 25 1000.5
20260509012018 20 325 12.9 24.1 0.00 0.00 0.00 25 1000.4
20260509011535 20 302 8.0 20.9 0.00 0.00 0.00 26 1000.4
20260509011017 20 232 9.7 20.9 0.00 0.00 0.00 25 1000.4
20260509010518 20 278 4.8 25.7 0.00 0.00 0.00 27 1000.4
20260509010036 20 264 8.0 25.7 0.00 0.00 0.00 26 1000.4
20260509005520 20 278 6.4 25.7 0.00 0.00 0.00 27 1000.3
20260509005017 20 267 4.8 12.9 0.00 0.00 0.00 28 1000.3
20260509004539 20 249 3.2 11.3 0.00 0.00 0.00 27 1000.3
20260509004017 20 0 0.0 11.3 0.00 0.00 0.00 28 1000.4
20260509003519 20 292 3.2 11.3 0.00 0.00 0.00 27 1000.3
20260509003038 20 268 3.2 12.9 0.00 0.00 0.00 27 1000.3
20260509002516 20 259 3.2 14.5 0.00 0.00 0.00 26 1000.3
20260509002017 20 284 3.2 14.5 0.00 0.00 0.00 28 1000.3
20260509001534 21 240 4.8 22.5 0.00 0.00 0.00 29 1000.4
20260509001017 21 280 3.2 22.5 0.00 0.00 0.00 27 1000.4
20260509000517 21 0 0.0 11.3 0.00 0.00 0.00 26 1000.4
20260509000037 21 261 3.2 17.7 0.00 0.00 0.00 26 1000.4
20260508235518 21 303 1.6 17.7 0.00 0.00 0.00 25 1000.4
20260508235018 21 263 6.4 17.7 0.00 0.00 0.00 26 1000.4
20260508234535 21 242 4.8 17.7 0.00 0.00 0.00 26 1000.4
20260508234016 21 291 8.0 17.7 0.00 0.00 0.00 26 1000.5
20260508233517 21 280 6.4 19.3 0.00 0.00 0.00 26 1000.5
20260508233036 21 278 6.4 19.3 0.00 0.00 0.00 25 1000.6
20260508232517 21 296 6.4 16.1 0.00 0.00 0.00 26 1000.5
20260508232018 21 268 4.8 19.3 0.00 0.00 0.00 27 1000.6
20260508231540 21 229 6.4 19.3 0.00 0.00 0.00 25 1000.7
20260508231018 21 307 9.7 20.9 0.00 0.00 0.00 24 1000.8
20260508230517 21 255 8.0 20.9 0.00 0.00 0.00 24 1000.8
20260508230039 21 282 4.8 32.2 0.00 0.00 0.00 25 1000.8
20260508225521 21 328 14.5 32.2 0.00 0.00 0.00 24 1000.8
20260508225019 21 247 6.4 17.7 0.00 0.00 0.00 25 1000.8
20260508224535 21 264 6.4 24.1 0.00 0.00 0.00 25 1000.9
20260508224043 21 277 11.3 24.1 0.00 0.00 0.00 24 1000.9
20260508223517 21 249 11.3 24.1 0.00 0.00 0.00 24 1000.9
20260508223040 22 299 9.7 22.5 0.00 0.00 0.00 24 1001.0
20260508222517 22 283 12.9 22.5 0.00 0.00 0.00 26 1001.0
20260508222018 22 271 6.4 19.3 0.00 0.00 0.00 26 1001.1
20260508221537 22 282 4.8 20.9 0.00 0.00 0.00 27 1001.1
20260508221019 21 274 8.0 20.9 0.00 0.00 0.00 25 1001.2
20260508220517 21 291 4.8 22.5 0.00 0.00 0.00 26 1001.3
20260508220038 21 233 8.0 22.5 0.00 0.00 0.00 24 1001.4
20260508215519 21 333 4.8 22.5 0.00 0.00 0.00 25 1001.3
20260508215017 21 10 9.7 25.7 0.00 0.00 0.00 25 1001.5
20260508214550 21 266 9.7 25.7 0.00 0.00 0.00 24 1001.5
20260508214016 21 342 11.3 25.7 0.00 0.00 0.00 25 1001.5
20260508213517 21 52 3.2 12.9 0.00 0.00 0.00 26 1001.5
20260508213046 21 263 4.8 12.9 0.00 0.00 0.00 24 1001.7
20260508212518 21 245 3.2 16.1 0.00 0.00 0.00 26 1001.8
20260508212017 21 246 4.8 22.5 0.00 0.00 0.00 24 1001.8
20260508211541 21 263 9.7 22.5 0.00 0.00 0.00 24 1001.8
20260508211015 21 209 9.7 22.5 0.00 0.00 0.00 26 1001.8
20260508210517 21 244 6.4 17.7 0.00 0.00 0.00 23 1001.9
20260508210036 21 322 4.8 19.3 0.00 0.00 0.00 28 1002.0
20260508205517 21 255 8.0 19.3 0.00 0.00 0.00 25 1002.1
20260508205018 21 260 8.0 20.9 0.00 0.00 0.00 24 1002.2
20260508204533 21 229 11.3 25.7 0.00 0.00 0.00 29 1002.2
20260508204016 21 204 8.0 25.7 0.00 0.00 0.00 26 1002.2
20260508203517 21 355 6.4 19.3 0.00 0.00 0.00 28 1002.4
20260508203032 20 7 3.2 29.0 0.00 0.00 0.00 35 1002.5
20260508202517 20 213 8.0 29.0 0.00 0.00 0.00 31 1002.6
20260508202017 20 317 11.3 29.0 0.00 0.00 0.00 29 1002.8
20260508201535 21 324 3.2 22.5 0.00 0.00 0.00 32 1002.7
20260508201017 21 302 8.0 22.5 0.00 0.00 0.00 34 1002.7
20260508200518 21 294 4.8 20.9 0.00 0.00 0.00 27 1002.9
20260508200032 21 315 6.4 16.1 0.00 0.00 0.00 28 1003.0
20260508195516 20 244 4.8 16.1 0.00 0.00 0.00 27 1002.9
20260508195015 21 308 4.8 19.3 0.00 0.00 0.00 27 1003.0
20260508194536 21 284 6.4 19.3 0.00 0.00 0.00 25 1003.0
20260508194017 21 274 11.3 19.3 0.00 0.00 0.00 24 1003.2
20260508193518 21 267 4.8 14.5 0.00 0.00 0.00 25 1003.1
20260508193044 21 307 6.4 14.5 0.00 0.00 0.00 22 1003.3
20260508192518 21 236 4.8 25.7 0.00 0.00 0.00 25 1003.3
20260508192018 21 290 12.9 25.7 0.00 0.00 0.00 22 1003.4
20260508191539 21 293 8.0 20.9 0.00 0.00 0.00 24 1003.4
20260508191017 21 340 3.2 20.9 0.00 0.00 0.00 23 1003.5
20260508190517 21 234 6.4 27.4 0.00 0.00 0.00 25 1003.5
20260508190035 21 17 9.7 27.4 0.00 0.00 0.00 23 1003.4
20260508185516 21 246 9.7 24.1 0.00 0.00 0.00 23 1003.6
20260508185016 21 215 8.0 24.1 0.00 0.00 0.00 25 1003.7
20260508184534 21 6 6.4 22.5 0.00 0.00 0.00 27 1003.7
20260508184017 21 224 8.0 22.5 0.00 0.00 0.00 24 1003.9
20260508183518 21 291 9.7 22.5 0.00 0.00 0.00 25 1003.9
20260508183038 21 273 8.0 29.0 0.00 0.00 0.00 28 1004.2
20260508182517 21 297 12.9 29.0 0.00 0.00 0.00 24 1004.2
20260508182015 21 284 9.7 22.5 0.00 0.00 0.00 24 1004.1
20260508181534 21 265 9.7 22.5 0.00 0.00 0.00 24 1004.3
20260508181017 21 278 8.0 22.5 0.00 0.00 0.00 26 1004.5
20260508180518 21 226 6.4 17.7 0.00 0.00 0.00 30 1004.6
20260508180035 21 274 4.8 20.9 0.00 0.00 0.00 29 1004.7
20260508175517 20 262 6.4 27.4 0.00 0.00 0.00 27 1005.0
20260508175017 20 222 11.3 29.0 0.00 0.00 0.00 27 1005.0
20260508174538 20 258 11.3 29.0 0.00 0.00 0.00 27 1005.1
20260508174017 20 228 8.0 22.5 0.00 0.00 0.00 27 1005.3
20260508173518 20 187 6.4 22.5 0.00 0.00 0.00 31 1005.3
20260508173032 20 249 11.3 22.5 0.00 0.00 0.00 28 1005.4
20260508172518 18 183 4.8 19.3 0.00 0.00 0.00 30 1005.4
20260508172016 18 208 8.0 14.5 0.00 0.00 0.00 29 1005.5
20260508171538 18 248 4.8 14.5 0.00 0.00 0.00 32 1005.7
20260508171029 17 278 4.8 20.9 0.00 0.00 0.00 31 1005.7
20260508170517 17 269 4.8 22.5 0.00 0.00 0.00 28 1005.8
20260508170037 17 275 9.7 22.5 0.00 0.00 0.00 28 1005.9
20260508165516 18 283 8.0 22.5 0.00 0.00 0.00 29 1005.9
20260508165017 18 202 12.9 27.4 0.00 0.00 0.00 28 1006.0
20260508164532 18 207 6.4 27.4 0.00 0.00 0.00 29 1006.0
20260508164015 17 230 8.0 27.4 0.00 0.00 0.00 30 1006.1
20260508163516 17 263 6.4 25.7 0.00 0.00 0.00 29 1006.2
20260508163037 17 201 11.3 25.7 0.00 0.00 0.00 31 1006.1
20260508162518 17 250 9.7 24.1 0.00 0.00 0.00 30 1006.2
20260508162017 17 263 9.7 24.1 0.00 0.00 0.00 31 1006.2
20260508161622 17 280 6.4 20.9 0.00 0.00 0.00 31 1006.3
20260508161534 17 280 6.4 20.9 0.00 0.00 0.00 31 1006.3
20260508161016 17 265 9.7 24.1 0.00 0.00 0.00 30 1006.3
20260508160517 17 306 12.9 24.1 0.00 0.00 0.00 31 1006.3
20260508160036 17 278 9.7 20.9 0.00 0.00 0.00 30 1006.4
20260508155519 17 250 6.4 20.9 0.00 0.00 0.00 31 1006.4
20260508155018 17 278 11.3 24.1 0.00 0.00 0.00 31 1006.4
20260508154532 17 303 9.7 24.1 0.00 0.00 0.00 33 1006.4
20260508154017 16 249 3.2 12.9 0.00 0.00 0.00 33 1006.4
20260508153518 16 0 3.2 14.5 0.00 0.00 0.00 36 1006.5
20260508153036 16 203 6.4 14.5 0.00 0.00 0.00 37 1006.6
20260508152516 15 194 3.2 12.9 0.00 0.00 0.00 41 1006.8
20260508152018 15 196 0.0 11.3 0.00 0.00 0.00 43 1006.9
20260508151539 15 195 1.6 11.3 0.00 0.00 0.00 43 1007.0
20260508151017 15 0 0.0 6.4 0.00 0.00 0.00 44 1007.0
20260508150519 15 0 1.6 11.3 0.00 0.00 0.00 40 1007.0
20260508150037 14 173 3.2 11.3 0.00 0.00 0.00 41 1007.1
20260508145516 14 216 1.6 11.3 0.00 0.00 0.00 40 1007.2
20260508145017 14 195 6.4 11.3 0.00 0.00 0.00 36 1007.1
20260508144533 13 0 1.6 9.7 0.00 0.00 0.00 36 1007.2
20260508144016 13 196 1.6 14.5 0.00 0.00 0.00 40 1007.3
20260508143518 13 196 3.2 14.5 0.00 0.00 0.00 40 1007.3
20260508143033 13 0 4.8 14.5 0.00 0.00 0.00 40 1007.4
20260508142518 13 0 3.2 12.9 0.00 0.00 0.00 43 1007.4
20260508142018 13 193 1.6 9.7 0.00 0.00 0.00 41 1007.5
20260508141536 13 186 3.2 11.3 0.00 0.00 0.00 40 1007.6
20260508141018 13 209 4.8 16.1 0.00 0.00 0.00 41 1007.6
20260508140519 13 219 6.4 16.1 0.00 0.00 0.00 37 1007.6
20260508140032 13 249 3.2 11.3 0.00 0.00 0.00 37 1007.7
20260508135517 13 168 4.8 17.7 0.00 0.00 0.00 39 1007.7
20260508135017 13 161 4.8 17.7 0.00 0.00 0.00 43 1007.7
20260508134532 13 202 4.8 19.3 0.00 0.00 0.00 38 1007.7
20260508134016 12 161 6.4 19.3 0.00 0.00 0.00 38 1007.8
20260508133519 12 176 4.8 16.1 0.00 0.00 0.00 39 1007.8
20260508133036 12 198 4.8 14.5 0.00 0.00 0.00 43 1007.8
20260508132516 11 237 4.8 17.7 0.00 0.00 0.00 43 1007.8
20260508132016 11 213 6.4 17.7 0.00 0.00 0.00 43 1007.9
20260508131540 10 197 6.4 17.7 0.00 0.00 0.00 45 1007.9
20260508131018 10 0 3.2 16.1 0.00 0.00 0.00 47 1007.9
20260508130519 10 186 3.2 16.1 0.00 0.00 0.00 47 1007.9
20260508130034 9 155 4.8 16.1 0.00 0.00 0.00 49 1007.9
20260508125521 8 203 1.6 6.4 0.00 0.00 0.00 53 1008.0
20260508125017 8 203 0.0 6.4 0.00 0.00 0.00 54 1008.1
20260508124531 7 0 1.6 4.8 0.00 0.00 0.00 55 1008.1
20260508124019 7 0 0.0 0.0 0.00 0.00 0.00 56 1008.1
20260508123516 7 0 0.0 4.8 0.00 0.00 0.00 56 1008.1
20260508123037 6 0 0.0 4.8 0.00 0.00 0.00 58 1007.9
20260508122516 6 0 0.0 0.0 0.00 0.00 0.00 62 1007.8
20260508122016 5 0 0.0 0.0 0.00 0.00 0.00 63 1007.9
20260508121531 5 0 0.0 0.0 0.00 0.00 0.00 65 1007.9
20260508121015 5 0 0.0 0.0 0.00 0.00 0.00 66 1007.9
20260508120516 4 0 0.0 3.2 0.00 0.00 0.00 69 1007.7
20260508120040 4 0 0.0 8.0 0.00 0.00 0.00 69 1007.8
20260508115516 4 207 1.6 8.0 0.00 0.00 0.00 72 1007.8
20260508115015 3 207 0.0 8.0 0.00 0.00 0.00 72 1007.8
20260508114532 3 0 0.0 6.4 0.00 0.00 0.00 72 1007.7
20260508114017 3 215 0.0 6.4 0.00 0.00 0.00 71 1007.8
20260508113519 3 0 0.0 0.0 0.00 0.00 0.00 72 1007.8
20260508113041 3 0 0.0 0.0 0.00 0.00 0.00 74 1007.8
20260508112517 3 0 0.0 3.2 0.00 0.00 0.00 74 1007.8
20260508112016 2 0 0.0 3.2 0.00 0.00 0.00 74 1007.8
20260508111544 2 0 0.0 0.0 0.00 0.00 0.00 74 1007.8
20260508111019 2 0 0.0 0.0 0.00 0.00 0.00 74 1007.8
20260508110517 2 0 0.0 0.0 0.00 0.00 0.00 74 1007.8
20260508110037 2 0 0.0 0.0 0.00 0.00 0.00 73 1007.7
20260508105518 3 0 0.0 0.0 0.00 0.00 0.00 73 1007.7
20260508105020 3 0 0.0 0.0 0.00 0.00 0.00 72 1007.6
20260508104537 3 0 0.0 0.0 0.00 0.00 0.00 72 1007.7
20260508104017 3 0 0.0 0.0 0.00 0.00 0.00 72 1007.8
20260508103517 3 0 0.0 0.0 0.00 0.00 0.00 71 1007.7
20260508103035 3 0 0.0 4.8 0.00 0.00 0.00 71 1007.8
20260508102516 3 0 0.0 6.4 0.00 0.00 0.00 71 1007.7
20260508102017 3 0 3.2 6.4 0.00 0.00 0.00 71 1007.7
20260508101534 3 214 1.6 6.4 0.00 0.00 0.00 71 1007.7
20260508101016 3 214 0.0 3.2 0.00 0.00 0.00 72 1007.7
20260508100516 2 0 0.0 3.2 0.00 0.00 0.00 72 1007.7
20260508100033 2 0 0.0 3.2 0.00 0.00 0.00 73 1007.7
20260508095516 2 0 0.0 0.0 0.00 0.00 0.00 74 1007.8
20260508095017 2 0 0.0 0.0 0.00 0.00 0.00 75 1007.8
20260508094536 2 0 0.0 0.0 0.00 0.00 0.00 75 1007.8
20260508094017 2 0 0.0 0.0 0.00 0.00 0.00 75 1007.8
20260508093517 2 0 0.0 0.0 0.00 0.00 0.00 75 1007.8
20260508093033 2 0 0.0 0.0 0.00 0.00 0.00 75 1007.8
20260508092518 2 0 0.0 3.2 0.00 0.00 0.00 75 1007.9
20260508092017 2 0 0.0 3.2 0.00 0.00 0.00 75 1007.8
20260508091539 2 0 0.0 4.8 0.00 0.00 0.00 74 1007.8
20260508091017 2 214 1.6 4.8 0.00 0.00 0.00 75 1007.9
20260508090517 2 214 1.6 4.8 0.00 0.00 0.00 75 1007.8
20260508090035 2 214 0.0 4.8 0.00 0.00 0.00 75 1007.9
20260508085517 2 0 0.0 4.8 0.00 0.00 0.00 75 1007.9
20260508085016 3 0 0.0 4.8 0.00 0.00 0.00 75 1007.9
20260508084537 3 214 1.6 6.4 0.00 0.00 0.00 75 1007.9
20260508084020 3 213 3.2 6.4 0.00 0.00 0.00 75 1007.9
20260508083517 3 213 1.6 6.4 0.00 0.00 0.00 75 1007.9
20260508083035 3 213 0.0 6.4 0.00 0.00 0.00 75 1007.9
20260508082516 3 213 1.6 6.4 0.00 0.00 0.00 75 1008.0
20260508082018 3 213 3.2 6.4 0.00 0.00 0.00 75 1008.1
20260508081545 3 213 0.0 6.4 0.00 0.00 0.00 75 1008.1
20260508081017 3 215 3.2 9.7 0.00 0.00 0.00 75 1008.1
20260508080521 3 213 3.2 9.7 0.00 0.00 0.00 75 1008.1
20260508080033 3 205 3.2 8.0 0.00 0.00 0.00 75 1008.2
20260508075517 3 204 3.2 8.0 0.00 0.00 0.00 75 1008.2
20260508075016 3 219 3.2 8.0 0.00 0.00 0.00 75 1008.2
20260508074534 3 219 3.2 8.0 0.00 0.00 0.00 75 1008.2
20260508074017 3 215 3.2 9.7 0.00 0.00 0.00 75 1008.2
20260508073517 3 177 3.2 9.7 0.00 0.00 0.00 76 1008.3
20260508073038 3 189 3.2 9.7 0.00 0.00 0.00 76 1008.4
20260508072516 3 241 3.2 6.4 0.00 0.00 0.00 76 1008.3
20260508072016 3 244 3.2 6.4 0.00 0.00 0.00 76 1008.4
20260508071534 3 252 3.2 6.4 0.00 0.00 0.00 76 1008.4
20260508071016 3 255 1.6 6.4 0.00 0.00 0.00 76 1008.5
20260508070517 3 255 3.2 6.4 0.00 0.00 0.00 76 1008.4
20260508070035 3 255 3.2 6.4 0.00 0.00 0.00 76 1008.4
20260508065519 3 282 0.0 6.4 0.00 0.00 0.00 75 1008.5
20260508065017 3 282 3.2 6.4 0.00 0.00 0.00 76 1008.5
20260508064536 3 283 3.2 6.4 0.00 0.00 0.00 76 1008.6
20260508064019 3 284 1.6 6.4 0.00 0.00 0.00 75 1008.5
20260508063521 3 288 1.6 4.8 0.00 0.00 0.00 75 1008.6
20260508063036 3 288 3.2 4.8 0.00 0.00 0.00 75 1008.7
20260508062516 3 289 3.2 4.8 0.00 0.00 0.00 75 1008.7
20260508062017 3 290 3.2 4.8 0.00 0.00 0.00 75 1008.7
20260508061532 3 290 3.2 4.8 0.00 0.00 0.00 74 1008.7
20260508061017 3 290 1.6 4.8 0.00 0.00 0.00 73 1008.8
20260508060519 3 0 0.0 4.8 0.00 0.00 0.00 73 1008.8
20260508060032 3 0 0.0 4.8 0.00 0.00 0.00 73 1008.8
20260508055516 3 290 1.6 4.8 0.00 0.00 0.00 72 1008.8
20260508055017 3 290 3.2 4.8 0.00 0.00 0.00 72 1008.8
20260508054536 3 290 3.2 4.8 0.00 0.00 0.00 72 1008.8
20260508054016 3 290 3.2 4.8 0.00 0.00 0.00 72 1008.8
20260508053516 3 290 3.2 4.8 0.00 0.00 0.00 71 1008.9
20260508053032 3 290 3.2 4.8 0.00 0.00 0.00 71 1009.0
20260508052517 3 290 1.6 4.8 0.00 0.00 0.00 70 1009.0
20260508052017 3 290 1.6 4.8 0.00 0.00 0.00 69 1009.0
20260508051538 3 290 3.2 4.8 0.00 0.00 0.00 68 1009.0
20260508051017 3 290 3.2 6.4 0.00 0.00 0.00 68 1009.0
20260508050517 3 290 3.2 6.4 0.00 0.00 0.00 68 1009.0
20260508050035 3 290 3.2 6.4 0.00 0.00 0.00 67 1009.1
20260508045519 3 290 3.2 6.4 0.00 0.00 0.00 66 1009.1
20260508045016 4 290 3.2 6.4 0.00 0.00 0.00 66 1009.2
20260508044534 4 290 3.2 4.8 0.00 0.00 0.00 65 1009.2
20260508044017 4 290 3.2 4.8 0.00 0.00 0.00 64 1009.3
20260508043517 4 290 1.6 4.8 0.00 0.00 0.00 63 1009.3
20260508043032 4 290 0.0 4.8 0.00 0.00 0.00 62 1009.3
20260508042517 4 290 3.2 4.8 0.00 0.00 0.00 61 1009.4
20260508042016 4 290 3.2 4.8 0.00 0.00 0.00 60 1009.4
20260508041536 5 290 1.6 4.8 0.00 0.00 0.00 60 1009.3
20260508041017 5 290 1.6 4.8 0.00 0.00 0.00 59 1009.3
20260508040516 5 290 3.2 4.8 0.00 0.00 0.00 58 1009.3
20260508040037 5 290 1.6 4.8 0.00 0.00 0.00 58 1009.3
20260508035517 5 290 0.0 4.8 0.00 0.00 0.00 57 1009.3
20260508035019 5 0 0.0 0.0 0.00 0.00 0.00 57 1009.4
20260508034535 5 0 0.0 3.2 0.00 0.00 0.00 56 1009.4
20260508034017 5 0 0.0 3.2 0.00 0.00 0.00 55 1009.5
20260508033517 5 0 0.0 3.2 0.00 0.00 0.00 55 1009.4
20260508033033 6 0 0.0 0.0 0.00 0.00 0.00 54 1009.5